When you browse on this site, cookies collect data to enhance your experience and personalize the content and advertising you see.
Visit our Privacy Policy to learn more. By continuing to use the site, you agree to this use of cookies and data.
  • en France
  • Liste des pays
  • À 7 jours
  • Température de l'eau
  • Carte satellitaire
  • Carte météo
  • Widgets météo
  • user-avatar
    Se connecter

    Météo par heure à Impfondo

    Ce jour, 20 Novembre, Mardi

    Heure Température Précipitation Vent Pression Humidité
    00:00 +24°C° 0 mm 0 m/s 730 mmHg 63%
    01:00 +23°C° 0 mm 0 m/s 730 mmHg 64%
    02:00 +23°C° 0 mm 0 m/s 729 mmHg 65%
    03:00 +23°C° 0 mm 0 m/s 729 mmHg 66%
    04:00 +22°C° 0 mm 0 m/s 729 mmHg 67%
    05:00 +23°C° 0 mm 0 m/s 730 mmHg 66%
    06:00 +24°C° 0 mm 0 m/s 730 mmHg 64%
    07:00 +26°C° 0 mm 0 m/s 731 mmHg 60%
    08:00 +29°C° 0 mm 0 m/s 731 mmHg 51%
    09:00 +32°C° 0 mm 0 m/s 731 mmHg 43%
    10:00 +37°C° 0 mm 1 m/s 731 mmHg 34%
    11:00 +39°C° 0 mm 1 m/s 730 mmHg 31%
    12:00 +40°C° 0 mm 1 m/s 730 mmHg 28%
    13:00 +40°C° 0 mm 1 m/s 729 mmHg 26%
    14:00 +40°C° 0 mm 1 m/s 728 mmHg 27%
    15:00 +39°C° 0 mm 1 m/s 728 mmHg 29%
    16:00 +39°C° 0 mm 1 m/s 728 mmHg 30%
    17:00 +35°C° 0 mm 1 m/s 728 mmHg 36%
    18:00 +30°C° 0 mm 0 m/s 728 mmHg 43%
    19:00 +28°C° 0 mm 0 m/s 729 mmHg 49%
    20:00 +28°C° 0 mm 0 m/s 729 mmHg 49%
    21:00 +28°C° 0 mm 0 m/s 730 mmHg 49%
    22:00 +28°C° 0 mm 0 m/s 730 mmHg 49%
    23:00 +27°C° 0 mm 0 m/s 730 mmHg 51%

    Demain, 21 Novembre, Mercredi

    Heure Température Précipitation Vent Pression Humidité
    00:00 +27°C° 0 mm 0 m/s 729 mmHg 53%
    01:00 +27°C° 0 mm 0 m/s 729 mmHg 54%
    02:00 +26°C° 0 mm 0 m/s 729 mmHg 56%
    03:00 +25°C° 0 mm 0 m/s 729 mmHg 58%
    04:00 +25°C° 0 mm 0 m/s 729 mmHg 59%
    05:00 +25°C° 0 mm 0 m/s 730 mmHg 59%
    06:00 +26°C° 0 mm 0 m/s 730 mmHg 59%
    07:00 +27°C° 0 mm 0 m/s 731 mmHg 58%
    08:00 +32°C° 0 mm 1 m/s 731 mmHg 51%
    09:00 +34°C° 0 mm 1 m/s 731 mmHg 43%
    10:00 +37°C° 0 mm 1 m/s 731 mmHg 36%
    11:00 +39°C° 0 mm 1 m/s 731 mmHg 33%
    12:00 +40°C° 0 mm 1 m/s 730 mmHg 30%
    13:00 +41°C° 0 mm 1 m/s 729 mmHg 28%
    14:00 +39°C° 0 mm 1 m/s 728 mmHg 33%
    15:00 +36°C° 0 mm 1 m/s 728 mmHg 39%
    16:00 +34°C° 0 mm 1 m/s 727 mmHg 44%
    17:00 +33°C° 0 mm 1 m/s 728 mmHg 50%
    18:00 +31°C° 0 mm 1 m/s 728 mmHg 56%
    19:00 +29°C° 0 mm 1 m/s 729 mmHg 63%
    20:00 +28°C° 0 mm 1 m/s 729 mmHg 66%
    21:00 +28°C° 0 mm 1 m/s 729 mmHg 69%
    22:00 +27°C° 0 mm 1 m/s 730 mmHg 72%
    23:00 +26°C° 0.2 mm 1 m/s 730 mmHg 78%

    Après-demain, 22 Novembre, Jeudi

    Heure Température Précipitation Vent Pression Humidité
    00:00 +26°C° 0.2 mm 1 m/s 730 mmHg 83%
    01:00 +25°C° 0.2 mm 1 m/s 730 mmHg 89%
    02:00 +25°C° 0 mm 1 m/s 729 mmHg 91%
    03:00 +25°C° 0 mm 1 m/s 729 mmHg 93%
    04:00 +24°C° 0 mm 1 m/s 729 mmHg 95%
    05:00 +25°C° 0 mm 1 m/s 730 mmHg 92%
    06:00 +26°C° 0 mm 1 m/s 730 mmHg 89%
    07:00 +27°C° 0 mm 2 m/s 731 mmHg 86%
    08:00 +29°C° 0 mm 2 m/s 731 mmHg 75%
    09:00 +31°C° 0 mm 2 m/s 731 mmHg 63%
    10:00 +35°C° 0 mm 2 m/s 732 mmHg 52%
    11:00 +35°C° 0.1 mm 2 m/s 731 mmHg 51%
    12:00 +36°C° 0.1 mm 2 m/s 730 mmHg 50%
    13:00 +35°C° 0.1 mm 1 m/s 729 mmHg 48%
    14:00 +35°C° 0 mm 1 m/s 728 mmHg 50%
    15:00 +34°C° 0 mm 1 m/s 728 mmHg 51%
    16:00 +34°C° 0 mm 1 m/s 728 mmHg 52%
    17:00 +32°C° 0.2 mm 1 m/s 728 mmHg 60%
    18:00 +30°C° 0.2 mm 1 m/s 729 mmHg 68%
    19:00 +28°C° 0.2 mm 1 m/s 729 mmHg 75%
    20:00 +27°C° 0.7 mm 1 m/s 730 mmHg 81%
    21:00 +27°C° 0.7 mm 1 m/s 730 mmHg 86%
    22:00 +26°C° 0.7 mm 1 m/s 730 mmHg 92%
    23:00 +25°C° 0.8 mm 1 m/s 730 mmHg 93%

    23 Novembre, Vendredi

    Heure Température Précipitation Vent Pression Humidité
    00:00 +25°C° 0.8 mm 1 m/s 730 mmHg 95%
    01:00 +25°C° 0.8 mm 1 m/s 730 mmHg 96%
    02:00 +25°C° 0.8 mm 1 m/s 730 mmHg 95%
    03:00 +25°C° 0.8 mm 1 m/s 730 mmHg 95%
    04:00 +25°C° 0.8 mm 1 m/s 730 mmHg 94%
    05:00 +25°C° 0 mm 1 m/s 730 mmHg 93%
    06:00 +26°C° 0 mm 1 m/s 731 mmHg 91%
    07:00 +26°C° 0 mm 1 m/s 731 mmHg 89%
    08:00 +29°C° 0 mm 1 m/s 732 mmHg 77%
    09:00 +31°C° 0 mm 1 m/s 732 mmHg 64%
    10:00 +34°C° 0 mm 1 m/s 732 mmHg 51%
    11:00 +34°C° 0.6 mm 1 m/s 731 mmHg 55%
    12:00 +33°C° 0.6 mm 1 m/s 730 mmHg 58%
    13:00 +34°C° 0.6 mm 2 m/s 729 mmHg 62%
    14:00 +33°C° 0.3 mm 1 m/s 729 mmHg 61%
    15:00 +33°C° 0.3 mm 1 m/s 728 mmHg 60%
    16:00 +33°C° 0.3 mm 1 m/s 728 mmHg 59%
    17:00 +29°C° 0 mm 0 m/s 728 mmHg 65%
    18:00 +27°C° 0 mm 0 m/s 729 mmHg 71%
    19:00 +26°C° 0 mm 0 m/s 729 mmHg 76%
    20:00 +25°C° 0 mm 0 m/s 729 mmHg 77%
    21:00 +25°C° 0 mm 0 m/s 730 mmHg 78%
    22:00 +25°C° 0 mm 0 m/s 730 mmHg 79%
    23:00 +24°C° 0.1 mm 0 m/s 730 mmHg 82%

    24 Novembre, Samedi

    Heure Température Précipitation Vent Pression Humidité
    00:00 +24°C° 0.1 mm 0 m/s 729 mmHg 85%
    01:00 +23°C° 0.1 mm 0 m/s 729 mmHg 88%
    02:00 +23°C° 0.2 mm 0 m/s 729 mmHg 90%
    03:00 +23°C° 0.2 mm 0 m/s 729 mmHg 92%
    04:00 +22°C° 0.2 mm 0 m/s 729 mmHg 94%
    05:00 +25°C° 0.1 mm 1 m/s 730 mmHg 92%
    06:00 +26°C° 0.1 mm 1 m/s 730 mmHg 91%
    07:00 +26°C° 0.1 mm 1 m/s 731 mmHg 89%
    08:00 +30°C° 0 mm 1 m/s 731 mmHg 74%
    09:00 +33°C° 0 mm 1 m/s 731 mmHg 60%
    10:00 +36°C° 0 mm 1 m/s 731 mmHg 45%
    11:00 +37°C° 0 mm 1 m/s 730 mmHg 40%
    12:00 +39°C° 0 mm 2 m/s 729 mmHg 36%
    13:00 +40°C° 0 mm 2 m/s 728 mmHg 31%
    14:00 +39°C° 0 mm 2 m/s 728 mmHg 34%
    15:00 +37°C° 0 mm 1 m/s 728 mmHg 36%
    16:00 +36°C° 0 mm 1 m/s 727 mmHg 39%
    17:00 +34°C° 0 mm 1 m/s 728 mmHg 44%
    18:00 +30°C° 0 mm 0 m/s 728 mmHg 50%
    19:00 +28°C° 0 mm 0 m/s 729 mmHg 56%
    20:00 +27°C° 0 mm 0 m/s 729 mmHg 59%
    21:00 +27°C° 0 mm 0 m/s 729 mmHg 62%
    22:00 +26°C° 0 mm 0 m/s 730 mmHg 64%
    23:00 +26°C° 0 mm 0 m/s 729 mmHg 67%

    25 Novembre, Dimanche

    Heure Température Précipitation Vent Pression Humidité
    00:00 +27°C° 0 mm 1 m/s 729 mmHg 70%
    01:00 +27°C° 0 mm 1 m/s 729 mmHg 72%
    02:00 +26°C° 0.6 mm 1 m/s 729 mmHg 78%
    03:00 +23°C° 0.6 mm 0 m/s 729 mmHg 84%
    04:00 +23°C° 0.6 mm 0 m/s 729 mmHg 90%
    05:00 +25°C° 0.1 mm 1 m/s 730 mmHg 90%
    06:00 +26°C° 0.1 mm 1 m/s 730 mmHg 90%
    07:00 +26°C° 0.1 mm 1 m/s 731 mmHg 89%
    08:00 +29°C° 0 mm 1 m/s 731 mmHg 77%
    09:00 +32°C° 0 mm 1 m/s 731 mmHg 64%
    10:00 +34°C° 0 mm 1 m/s 731 mmHg 52%
    11:00 +36°C° 0 mm 1 m/s 730 mmHg 46%
    12:00 +39°C° 0 mm 1 m/s 729 mmHg 40%
    13:00 +38°C° 0 mm 0 m/s 728 mmHg 35%
    14:00 +37°C° 0 mm 0 m/s 727 mmHg 38%
    15:00 +35°C° 0 mm 0 m/s 727 mmHg 42%
    16:00 +34°C° 0 mm 0 m/s 726 mmHg 45%
    17:00 +32°C° 0 mm 0 m/s 727 mmHg 50%
    18:00 +30°C° 0 mm 0 m/s 728 mmHg 55%
    19:00 +30°C° 0 mm 1 m/s 728 mmHg 60%
    20:00 +30°C° 0 mm 1 m/s 728 mmHg 63%
    21:00 +29°C° 0 mm 1 m/s 729 mmHg 66%
    22:00 +28°C° 0 mm 1 m/s 729 mmHg 68%
    23:00 +27°C° 1.6 mm 1 m/s 729 mmHg 78%
    Voir plus